Dewpoint
60 57 52 42 49 42 33 30 3 12 20 13 21 19 7 17 21 19 18 20 14 50 57 60 60 60 51 52 59 61 62 54 53 48 45 58 69 68 70 71 72 72 72 73 73 72 72 73 73 72 72 71 72 72 71 71 71 71 71 70 71 71 72 72 72 72 72 72 72 72 72 72 72 72 72 72 72 72 72 72 71 71 71 71 71 71 72 71 71 71 71 71 71 71 71 71 70
53 50 42 47 45 29 31 30 24 25 24 22 20 23 20 22 18 17 17 17 20 57 59 60 61 61 62 62 63 61 63 64 64 64 66 68 70 70 72 72 72 71 72 73 73 73 73 72 73 72 72 72 71 71 69 70 71 71 70 70 71 71 72 72 72 72 72 72 72 72 72 72 72 72 72 72 72 72 72 72 71 71 71 72 71 70 72 71 71 71 71 71 71 71 71 71 71
54 46 32 39 35 35 34 30 16 25 20 15 15 20 21 13 16 18 20 20 54 58 59 59 59 59 61 60 58 58 57 65 66 67 67 68 66 68 72 72 72 72 72 73 72 72 72 72 72 72 72 72 72 71 71 71 71 71 70 70 71 71 71 72 72 72 72 72 72 72 72 72 72 72 72 72 72 72 72 72 71 71 71 71 71 71 71 71 71 71 71 71 70 71 71 70 70
47 51 37 32 30 34 31 30 26 21 15 9 10 12 19 19 33 48 50 49 57 57 55 58 58 61 59 58 60 62 62 63 66 66 66 66 66 71 72 72 72 72 72 72 72 72 71 72 72 72 72 72 72 71 70 71 71 71 70 70 71 71 71 72 72 72 72 72 72 72 72 72 72 72 72 72 72 72 72 71 71 71 71 71 70 70 70 71 70 70 70 70 70 70 70 69 68
43 47 39 34 30 30 31 30 29 20 12 18 7 9 25 18 43 48 50 52 55 53 57 57 59 62 61 60 61 60 62 64 65 66 67 68 70 71 72 72 72 72 72 72 72 72 71 73 72 72 71 72 71 71 70 70 71 70 70 70 70 71 71 72 72 72 72 72 72 72 72 72 72 72 72 72 72 72 72 72 71 71 71 71 71 70 70 70 69 69 69 69 69 69 68 68 68
33 34 39 32 27 33 24 22 25 23 14 18 13 13 16 12 28 49 51 53 55 57 56 58 58 60 61 63 63 62 64 62 65 66 67 68 71 72 72 72 72 71 72 72 72 72 72 73 72 72 72 71 71 71 71 70 70 70 70 70 70 71 71 72 72 72 72 72 72 72 72 72 72 72 71 71 71 71 71 71 71 71 71 70 70 69 69 69 69 68 68 68 68 68 67 67 68
31 30 31 26 26 28 21 22 19 22 21 20 19 18 19 19 23 49 50 51 52 60 61 61 62 61 59 63 63 65 66 66 65 66 68 70 71 71 71 71 71 71 72 72 72 72 72 72 72 72 72 71 71 71 70 70 70 70 70 70 70 71 71 72 72 72 72 72 72 72 72 72 72 72 71 71 71 71 71 70 70 70 70 70 70 70 69 69 69 68 68 68 68 67 67 67 67
43 26 31 24 24 23 22 22 21 22 22 24 24 22 23 23 23 21 24 50 49 58 61 60 62 61 61 64 60 65 66 66 67 69 70 70 71 71 71 71 70 71 72 72 72 72 72 72 72 72 71 71 71 71 70 70 70 70 69 70 70 70 71 72 72 72 72 72 72 72 72 72 71 71 71 71 71 71 71 70 70 70 70 70 70 70 69 69 68 68 68 68 68 67 67 68 68
32 33 35 21 22 23 19 17 17 19 21 19 18 26 35 23 20 20 19 42 56 59 58 60 60 59 61 62 62 65 65 67 69 70 69 70 70 70 70 70 70 71 71 72 72 72 72 72 72 72 71 71 71 70 70 70 70 69 69 69 70 71 71 71 72 72 72 72 72 72 72 72 72 71 71 71 70 70 70 70 70 70 70 69 68 68 68 68 68 68 68 68 67 68 68 68 68
31 28 25 24 22 18 21 17 18 14 16 16 15 15 21 24 22 21 18 21 55 59 62 63 60 61 62 61 63 64 65 67 68 68 69 69 70 69 69 70 70 70 71 71 71 71 71 72 72 71 71 71 70 70 70 70 70 69 70 71 71 72 71 72 72 73 73 72 72 72 72 71 71 71 71 70 70 70 70 70 70 70 69 68 68 68 68 68 68 67 67 68 68 68 68 68 67
29 27 28 21 22 17 16 12 18 18 18 20 17 20 19 17 17 16 18 41 58 60 62 62 61 61 61 62 63 66 66 66 66 67 68 69 69 69 69 70 70 70 71 71 71 71 71 71 72 71 71 71 71 71 71 71 70 71 71 71 71 71 71 72 72 72 72 72 72 72 72 71 71 71 71 70 70 70 70 70 69 69 69 69 69 69 69 68 67 67 67 67 68 68 68 68 67
27 23 21 19 18 15 15 17 16 16 15 14 13 14 18 20 18 17 22 56 60 61 60 61 60 62 61 61 62 65 65 66 67 68 68 69 69 69 69 70 70 71 71 71 71 71 71 71 71 71 71 71 71 71 71 70 70 71 71 71 71 71 71 71 71 72 72 72 72 71 71 71 71 71 70 70 70 70 70 69 69 69 69 69 69 69 68 68 67 67 67 68 68 68 68 68 67
28 19 17 17 17 16 22 14 13 27 23 13 14 15 14 17 16 16 25 52 60 60 59 60 62 61 59 61 65 65 65 66 67 68 68 69 69 69 69 70 70 70 70 71 70 70 70 69 70 70 70 70 71 70 70 71 71 71 71 71 71 71 71 71 70 71 72 72 71 71 71 71 71 71 71 70 70 69 69 69 69 68 69 69 69 69 69 68 68 68 68 68 68 68 68 67 67
27 20 17 16 15 12 11 13 13 13 12 13 13 14 14 14 15 19 52 57 59 57 59 62 62 62 62 63 63 63 65 68 68 68 69 69 69 68 69 70 70 70 70 70 70 69 69 69 69 69 69 69 69 70 70 71 71 71 70 70 71 71 70 70 70 71 71 71 71 71 71 71 70 70 70 70 70 70 69 69 69 69 69 69 70 69 69 69 68 68 68 68 68 68 68 67 67
29 24 24 19 15 13 12 12 11 12 11 11 12 25 43 49 18 51 54 57 57 61 63 63 63 61 59 60 61 63 66 67 68 68 68 68 68 68 68 69 69 69 69 69 69 69 69 68 68 69 69 68 68 68 68 70 70 70 70 70 70 70 71 71 70 71 71 71 71 71 71 70 70 70 70 70 70 69 69 69 69 69 69 69 70 69 69 69 68 69 68 68 68 68 67 68 69
30 17 19 18 13 11 11 12 13 10 10 12 13 34 54 58 48 55 56 58 60 62 63 61 63 56 61 61 62 65 66 67 68 68 68 67 68 68 68 69 69 69 69 69 69 69 69 68 67 68 68 68 67 67 67 67 69 69 70 70 69 70 70 71 71 71 71 71 71 71 71 70 70 70 71 71 70 70 70 70 69 69 69 69 69 70 70 69 69 69 69 69 68 68 68 68 68
18 21 18 15 12 11 9 10 11 10 12 13 14 17 53 57 60 61 61 61 60 61 64 65 64 64 62 64 66 66 67 68 68 67 67 67 67 67 67 68 68 68 68 69 69 69 69 69 68 68 68 68 67 66 66 67 69 69 69 69 69 69 69 70 70 70 71 70 71 71 69 67 67 67 67 69 70 70 70 69 69 68 69 69 69 70 69 70 70 69 69 69 69 69 68 67 67
27 24 17 15 11 11 15 11 12 13 13 12 12 14 44 53 59 61 62 63 63 63 63 64 65 65 66 66 66 67 67 67 67 66 66 65 66 65 65 66 66 66 67 67 68 69 69 69 69 69 69 68 67 67 68 68 68 70 68 68 68 69 70 71 70 70 71 69 70 68 68 68 65 66 66 70 67 69 69 69 69 69 69 69 69 69 70 70 70 70 69 69 69 68 67 63 62
27 24 20 17 14 10 18 16 17 13 12 13 13 13 15 46 59 60 60 61 61 61 63 64 63 65 65 66 66 66 66 66 66 65 65 64 64 64 64 65 65 66 65 67 67 68 69 69 69 69 69 69 69 69 69 70 69 68 68 68 69 71 71 70 69 69 68 69 68 67 67 65 65 65 67 68 68 70 69 70 69 69 69 69 68 70 70 70 70 70 69 70 68 67 64 63 62
26 21 17 16 15 13 14 16 14 13 13 12 13 13 47 57 57 59 59 60 60 60 61 63 63 62 64 65 65 65 65 65 65 65 64 63 63 63 64 64 64 65 65 66 66 68 68 68 69 69 69 69 69 69 69 69 69 67 67 67 67 68 69 69 69 68 69 69 68 66 66 67 64 63 70 71 70 66 64 69 70 70 70 70 70 67 69 69 70 69 69 69 66 66 65 63 62
22 25 22 20 17 16 15 16 15 15 15 14 14 18 56 55 58 60 60 58 59 60 62 62 62 63 63 65 65 65 65 65 65 64 64 63 63 64 63 64 63 64 65 66 67 67 68 68 68 69 69 68 68 68 68 68 67 67 66 67 67 67 67 67 67 67 67 67 67 66 65 66 64 63 65 66 67 66 63 65 65 65 65 66 69 66 65 65 66 67 67 67 66 66 66 64 63
17 23 22 18 15 14 14 14 15 16 19 15 19 54 54 57 60 60 57 53 54 59 62 63 64 64 64 64 64 65 65 64 64 64 63 63 62 63 63 64 65 66 66 65 66 67 67 68 68 68 69 68 68 68 68 69 67 66 66 67 66 65 65 65 65 65 65 65 65 66 66 64 63 63 63 65 66 66 66 64 64 64 64 65 67 66 64 65 66 67 67 67 66 66 66 65 65
21 21 15 15 15 13 14 15 16 14 13 12 18 38 56 58 59 58 59 59 61 63 64 65 65 65 65 65 64 64 64 64 64 64 63 63 62 63 63 64 64 64 65 65 66 67 67 67 68 68 68 68 68 68 68 68 67 65 66 65 65 64 64 65 65 65 65 65 65 67 65 64 65 63 63 64 65 65 66 65 65 64 63 63 64 65 64 64 65 66 66 67 67 66 66 66 65
21 20 15 14 13 13 14 13 15 13 14 12 16 41 56 58 56 60 61 62 64 64 65 65 65 65 65 64 64 64 64 64 64 64 63 63 63 63 64 64 65 65 66 65 66 67 68 67 67 68 68 68 67 68 68 67 66 65 66 67 65 68 66 64 64 65 66 66 66 66 66 65 65 64 63 64 65 65 66 66 65 65 65 63 63 63 63 62 62 64 65 66 66 66 66 66 65
15 14 16 14 15 13 13 13 13 14 13 13 41 52 55 58 59 60 59 63 64 64 65 65 65 65 64 64 63 63 63 63 63 63 64 63 64 64 64 65 65 65 65 66 67 67 67 68 68 67 68 68 67 68 68 67 67 65 66 65 64 69 64 64 65 66 66 66 66 66 67 65 65 64 63 64 64 65 64 65 65 65 65 65 65 64 63 62 61 63 64 65 65 65 65 65 65
16 17 18 15 13 13 12 12 13 13 17 46 57 58 59 58 59 58 58 64 64 65 65 65 65 64 64 63 63 63 63 63 63 63 63 64 64 64 64 65 65 65 65 66 67 67 68 68 67 67 67 67 67 67 66 66 66 65 64 64 64 68 64 64 65 65 65 66 66 66 67 66 65 65 65 64 64 64 64 64 65 65 65 65 65 65 64 64 63 62 62 63 63 63 63 63 65
16 15 14 12 10 11 12 11 15 17 20 55 57 57 57 57 57 57 60 63 64 64 64 65 64 64 64 63 63 64 63 63 63 64 64 64 64 64 64 65 65 66 66 66 67 67 68 68 67 67 68 68 66 65 65 66 66 64 65 64 64 65 66 66 65 64 66 66 66 66 67 67 67 66 66 65 65 65 64 64 65 64 65 65 65 65 64 65 64 64 63 63 62 62 63 63 64
13 12 11 9 8 10 10 10 10 14 14 42 58 55 53 56 57 58 60 64 64 64 64 64 64 64 63 63 63 64 64 64 64 64 63 63 63 64 64 64 65 66 66 66 67 68 68 67 67 67 67 68 66 66 67 66 66 66 65 65 65 66 67 65 65 65 66 66 66 66 66 66 67 67 66 65 66 66 66 65 65 65 65 66 65 65 65 64 65 64 64 64 64 64 64 64 64
11 11 7 7 8 7 10 10 11 13 19 54 54 52 49 47 55 58 61 63 63 63 63 63 63 63 63 63 64 64 64 64 65 64 64 64 64 65 65 66 66 66 67 67 67 67 67 67 67 67 67 65 65 65 65 65 66 66 67 66 67 68 67 66 65 65 66 66 66 66 66 67 67 67 66 66 66 65 65 65 66 66 66 66 65 65 65 64 64 64 64 64 64 63 63 63 63
13 9 9 6 8 4 5 12 14 17 44 55 50 44 45 53 56 58 62 62 62 62 63 63 63 63 63 63 63 63 64 64 64 65 65 65 65 66 66 66 67 67 67 67 67 67 68 68 68 67 66 65 66 65 65 65 66 67 66 66 68 68 67 67 67 66 66 66 66 66 66 66 67 67 66 66 65 65 65 65 65 65 66 66 66 66 66 65 64 63 64 64 65 64 63 63 62
9 10 11 12 6 6 7 12 12 11 18 47 16 42 36 55 58 61 62 62 62 61 62 62 62 62 62 63 63 63 64 64 64 65 65 65 66 66 66 66 67 67 67 67 67 68 68 68 68 68 67 66 66 66 65 66 67 67 66 66 67 67 67 66 66 66 66 66 66 66 65 65 66 66 66 66 66 65 65 64 64 65 65 66 66 66 66 65 65 64 64 64 63 63 63 63 63
16 7 8 12 6 9 9 20 13 12 17 18 26 34 48 55 57 60 63 62 62 61 62 62 62 62 62 62 63 62 62 63 63 64 65 65 65 65 66 66 67 67 67 67 68 68 68 68 67 66 65 65 65 66 65 65 65 65 66 68 66 66 66 66 65 65 66 66 67 67 66 66 66 66 66 66 66 65 65 65 65 64 64 65 65 65 65 65 64 64 64 63 63 63 62 62 62
18 10 17 10 9 6 7 19 12 13 11 24 17 26 51 53 57 58 61 61 60 60 60 61 60 61 62 62 62 62 62 62 63 64 64 65 65 65 65 66 66 66 67 67 67 67 68 67 66 65 64 64 65 65 64 65 64 64 64 64 65 66 66 66 66 66 66 65 65 65 66 67 67 67 66 66 66 66 66 65 66 65 65 65 64 64 64 65 64 64 64 64 63 63 63 62 62
10 16 13 18 7 8 6 8 10 35 11 22 45 51 52 53 55 56 57 56 55 55 56 59 61 61 62 62 62 62 61 61 61 63 64 65 65 65 66 66 66 66 66 66 67 67 66 66 67 67 66 66 66 65 66 65 65 64 63 63 66 65 65 65 65 64 64 64 64 64 64 65 67 67 67 67 66 66 66 66 66 66 66 65 65 64 64 64 64 64 64 64 63 63 62 62 62
12 10 12 10 12 12 8 7 6 37 44 43 46 50 49 52 55 56 55 55 55 53 56 60 61 61 62 62 61 61 61 60 61 62 63 64 65 65 65 65 65 65 66 66 66 66 66 66 65 65 65 65 65 66 67 66 65 63 63 64 64 64 63 64 64 64 63 63 63 64 64 65 66 66 67 67 67 67 66 66 66 66 66 66 65 65 65 65 65 65 64 64 64 63 63 63 63
13 15 18 16 11 8 6 7 15 44 49 48 47 48 51 53 52 54 55 56 53 54 55 57 59 59 60 61 61 60 60 60 61 61 62 62 63 64 63 63 63 64 65 65 66 66 65 64 63 63 64 66 65 65 65 65 65 64 64 64 64 64 63 64 63 63 63 63 64 64 64 63 63 65 65 65 66 66 66 66 66 66 66 65 65 65 65 65 65 65 64 64 64 64 64 64 63
13 12 12 10 9 8 8 9 29 43 49 50 50 51 52 52 52 53 54 55 55 56 55 55 55 59 59 60 60 60 59 59 60 60 61 61 61 62 62 62 61 62 62 62 62 63 63 62 61 61 63 63 64 65 65 64 64 63 63 63 63 62 64 64 63 62 63 63 64 64 64 63 63 62 64 63 63 64 65 65 65 66 65 65 64 64 65 65 65 65 65 65 64 63 63 64 64
13 11 10 10 9 7 10 21 46 49 48 50 53 52 51 51 52 53 54 53 53 54 54 54 56 56 57 58 58 58 58 59 59 59 60 60 60 60 60 61 61 60 60 60 60 60 60 60 60 61 61 62 63 64 64 64 64 65 65 64 63 63 63 63 62 63 63 63 63 63 63 62 62 62 64 64 64 63 63 63 63 63 64 64 64 64 64 65 64 64 64 63 64 64 63 64 63
14 12 14 11 10 9 25 43 49 49 50 50 52 50 51 51 52 52 53 53 52 54 54 54 53 54 56 57 57 57 57 57 58 58 59 59 59 59 59 59 59 59 59 59 59 59 59 59 60 60 61 61 62 63 63 63 64 64 64 64 64 63 63 64 64 64 64 63 63 63 63 63 63 63 63 63 64 63 63 63 63 64 64 64 64 63 63 63 63 63 63 62 62 64 64 64 63
16 13 12 11 13 12 20 41 49 50 50 50 50 49 50 52 53 53 54 53 54 54 53 54 55 56 54 56 56 56 56 57 57 57 57 58 58 58 58 58 58 58 58 58 58 58 59 59 59 59 60 60 61 62 62 63 64 64 64 64 64 63 63 64 63 63 63 63 62 63 63 63 63 63 63 63 63 63 63 63 63 64 64 64 64 63 63 63 63 63 63 63 63 61 62 62 64
21 14 15 12 13 24 31 42 48 50 51 51 49 48 48 50 50 51 53 54 54 54 55 54 54 56 56 56 56 56 56 56 56 56 57 57 57 57 57 57 57 56 57 57 57 57 58 57 58 58 58 59 59 61 61 62 62 62 62 62 62 62 61 61 60 60 61 62 61 62 62 63 63 62 62 62 63 63 63 63 64 64 65 64 64 63 63 63 63 63 63 63 63 62 61 62 63
14 18 11 13 27 45 46 46 45 45 46 48 47 41 42 48 49 50 52 53 53 54 54 53 54 55 55 54 55 55 56 56 56 56 56 56 56 56 56 56 56 56 56 57 56 56 56 56 57 57 57 58 58 59 60 60 60 60 60 59 59 59 58 58 58 58 59 59 60 61 62 62 62 61 62 62 62 63 62 63 63 64 64 64 64 64 63 63 63 63 63 63 63 63 62 62 61
13 12 13 19 45 46 44 44 42 39 39 46 47 36 36 46 46 48 50 51 51 53 52 53 53 53 54 54 54 54 54 55 55 55 56 55 55 55 55 55 55 55 56 56 56 56 56 56 56 56 57 57 57 57 58 59 58 59 59 59 59 59 58 58 58 58 58 59 59 60 60 61 60 60 60 60 60 61 62 62 63 63 63 63 64 63 62 62 63 63 63 63 63 63 62 60 61
10 12 12 38 45 43 42 40 39 39 42 44 43 38 38 40 45 49 50 49 49 50 50 51 52 53 53 54 54 54 54 55 55 55 55 55 54 54 53 54 54 54 55 54 55 55 55 55 55 55 56 56 56 56 56 58 57 57 57 58 59 58 57 57 57 57 57 58 58 58 58 58 59 60 60 60 59 60 61 62 62 62 62 63 63 63 63 63 63 63 63 63 63 63 62 61 61
11 13 12 36 44 43 41 35 37 37 36 35 40 41 34 35 43 49 49 47 48 48 49 51 51 52 52 53 53 54 54 54 54 54 54 54 54 54 53 53 53 53 54 54 54 54 54 54 54 54 54 55 55 55 55 55 58 56 57 57 56 57 57 57 57 57 56 57 56 56 56 56 57 59 59 59 58 58 60 60 59 59 59 60 61 61 61 61 61 62 62 63 63 63 63 63 62
10 14 14 14 21 37 39 33 34 33 26 24 38 40 30 30 44 46 48 47 46 47 50 50 51 51 52 52 53 54 54 54 54 54 54 54 54 53 53 53 53 53 53 54 53 54 53 53 53 52 52 52 53 53 54 54 55 57 56 56 55 55 55 55 55 54 54 54 54 54 55 56 56 57 58 56 55 55 55 55 56 55 56 57 59 58 59 59 60 60 60 61 61 61 63 63 62
12 12 10 11 18 22 29 28 33 31 24 25 36 39 32 28 42 45 44 45 47 48 50 51 51 51 52 53 53 53 53 53 53 53 53 54 53 53 52 51 52 52 53 53 53 53 53 52 51 51 51 51 51 51 52 53 54 55 55 55 54 54 54 54 53 53 52 52 52 52 53 54 55 56 57 55 52 50 51 51 51 52 53 54 55 55 56 57 58 59 60 61 61 61 61 62 62
9 8 8 7 13 16 18 25 26 21 21 25 34 39 32 24 28 46 46 46 48 49 49 50 50 50 51 52 53 53 52 52 52 52 52 52 52 52 52 52 51 51 52 52 52 52 52 52 51 50 51 51 51 51 51 51 52 53 54 54 54 53 53 53 52 51 51 50 51 51 52 53 54 55 55 54 51 49 49 49 50 49 50 51 51 51 51 52 53 55 57 59 60 61 61 61 61
8 12 9 8 12 9 4 21 13 14 15 20 31 36 32 30 32 41 47 46 49 50 50 50 50 50 51 52 52 52 52 51 50 51 52 52 51 51 51 52 52 51 51 52 52 52 52 52 51 50 50 51 51 50 50 51 51 51 52 52 51 51 51 51 50 49 49 50 50 51 51 52 53 53 53 53 49 48 47 48 48 48 49 49 49 48 49 49 50 52 54 56 58 58 60 61 61
8 9 11 7 6 3 0 9 13 17 20 26 33 35 30 33 40 44 45 47 50 50 50 50 50 50 51 51 51 51 52 51 51 50 50 51 51 51 51 51 52 51 51 51 51 51 52 51 51 51 51 51 51 50 50 50 50 50 50 50 50 49 48 48 49 48 48 48 49 50 50 51 51 51 52 52 47 46 45 45 46 45 45 45 46 46 46 47 47 49 51 52 53 55 57 57 58
8 10 9 11 13 6 0 10 7 12 19 25 31 31 26 31 37 44 45 47 50 50 50 50 50 51 50 51 51 50 51 51 50 50 50 50 50 50 51 51 50 50 50 50 49 50 51 51 51 50 50 51 50 50 49 49 49 49 49 49 49 49 48 47 47 47 47 47 47 48 49 50 50 50 51 51 48 45 45 45 45 44 43 44 44 44 44 45 45 47 49 50 51 52 53 54 55
8 9 10 10 8 20 7 16 16 20 22 23 29 29 36 38 45 46 48 49 49 50 50 50 50 50 50 50 49 50 50 49 49 49 49 50 50 50 49 49 49 49 49 49 49 50 50 51 50 50 50 50 50 50 49 48 48 48 48 49 48 48 49 47 46 46 46 47 46 46 47 48 49 49 50 51 50 47 45 44 43 43 42 42 42 42 42 42 43 44 46 47 48 49 49 50 52
13 9 10 10 16 22 18 17 22 19 21 19 32 35 40 45 46 46 48 48 48 49 49 49 49 50 49 48 48 48 48 48 48 49 49 49 48 48 49 49 49 49 49 49 50 50 50 50 49 49 49 49 49 49 48 48 47 47 47 48 48 47 46 46 45 46 46 46 46 46 45 46 47 47 48 48 48 48 45 44 42 42 42 41 41 41 41 41 41 43 44 44 44 45 46 47 49
9 10 10 15 20 21 14 8 14 12 11 13 32 34 36 34 31 46 47 46 47 48 48 49 49 49 48 47 47 47 48 48 49 49 49 48 47 48 48 48 48 48 48 48 48 49 49 48 48 48 48 48 48 48 47 47 46 46 46 46 47 48 46 45 45 45 45 45 45 45 45 45 45 46 46 46 45 45 44 43 41 40 40 40 40 40 40 40 41 42 42 43 43 43 44 45 46
8 10 12 8 9 6 16 18 8 9 11 18 30 35 37 36 35 43 44 45 46 47 47 48 47 47 46 46 47 48 48 48 47 47 46 47 47 47 47 47 47 48 48 48 48 48 48 48 47 47 47 47 47 47 47 47 47 46 46 46 46 47 47 45 45 45 44 44 43 43 43 43 44 45 44 44 44 43 42 41 40 40 40 40 40 40 40 40 40 41 42 42 42 43 43 44 45
12 11 8 18 15 13 13 13 15 17 12 17 23 34 31 37 37 43 44 46 46 46 46 46 46 46 46 46 47 47 47 46 46 45 45 45 45 46 46 47 46 47 47 47 47 46 46 46 46 46 46 46 46 46 46 46 46 46 45 45 45 46 47 46 45 44 44 43 43 43 43 43 43 44 43 43 43 42 41 40 40 40 40 39 39 40 40 39 40 40 41 41 42 42 43 43 44
10 11 10 13 18 20 14 19 18 17 18 18 24 28 32 34 40 43 44 46 46 46 45 45 45 45 45 46 46 46 46 45 45 45 45 44 44 44 45 46 47 47 47 47 46 46 46 46 45 45 45 45 45 45 45 45 45 45 46 45 45 45 45 46 46 45 44 44 43 44 43 43 42 43 43 42 42 41 40 40 40 40 39 39 39 39 40 39 39 39 40 41 41 42 42 43 44
9 11 10 11 15 11 7 11 25 27 25 24 25 22 29 33 42 43 44 46 46 45 45 44 44 45 45 45 45 45 44 44 44 44 44 43 43 44 45 46 46 46 46 45 45 45 45 45 45 45 44 44 44 44 45 45 45 44 44 44 44 44 44 45 45 46 45 44 44 43 43 42 42 42 42 41 41 41 40 40 39 39 38 38 39 39 39 39 39 39 39 41 41 41 42 43 44